Time,TemperatureF,DewpointF,PressureIn,WindDirection,WindDirectionDegrees,WindSpeedMPH,WindSpeedGustMPH,Humidity,HourlyPrecipIn,Conditions,Clouds,dailyrainin,SoftwareType,DateUTC
2013-08-19 00:00:00,69.3,69.0,30.12,ESE,112,0.0,1.0,99,0.00,,,-99.99,WeatherLink 6.0.0,2013-08-19 04:00:00,
2013-08-19 00:01:00,69.2,68.6,30.12,SSE,160,0.0,0.0,98,0.00,,,0.01,Wunderground v.1.15,2013-08-19 04:01:00,
2013-08-19 00:03:00,69.2,68.6,30.12,SSE,160,0.0,0.0,98,0.00,,,0.01,Wunderground v.1.15,2013-08-19 04:03:00,
2013-08-19 00:06:00,69.2,68.6,30.12,SSE,160,0.0,0.0,98,0.00,,,0.01,Wunderground v.1.15,2013-08-19 04:06:00,
2013-08-19 00:11:00,69.2,68.6,30.12,SSE,160,0.0,0.0,98,0.00,,,0.01,Wunderground v.1.15,2013-08-19 04:11:00,
2013-08-19 00:14:00,69.1,68.5,30.13,SSE,160,0.0,0.0,98,0.00,,,0.01,Wunderground v.1.15,2013-08-19 04:14:00,
2013-08-19 00:20:00,69.1,68.5,30.13,SSE,160,0.0,0.0,98,0.00,,,0.01,Wunderground v.1.15,2013-08-19 04:20:00,
2013-08-19 00:25:00,69.0,68.4,30.13,SSE,160,0.0,0.0,98,0.00,,,0.01,Wunderground v.1.15,2013-08-19 04:25:00,
2013-08-19 00:30:00,70.4,69.8,30.14,ESE,112,0.0,1.0,98,0.00,,,-99.99,WeatherLink 6.0.0,2013-08-19 04:30:00,
2013-08-19 00:31:00,69.0,68.4,30.12,SSE,160,0.0,0.0,98,0.00,,,0.01,Wunderground v.1.15,2013-08-19 04:31:00,
2013-08-19 00:36:00,68.9,68.3,30.12,SSE,160,0.0,0.0,98,0.00,,,0.01,Wunderground v.1.15,2013-08-19 04:36:00,
2013-08-19 00:41:00,68.9,68.3,30.12,SSE,160,0.0,0.0,98,0.00,,,0.01,Wunderground v.1.15,2013-08-19 04:41:00,
2013-08-19 00:47:00,68.9,68.3,30.12,SSE,160,0.0,0.0,98,0.00,,,0.01,Wunderground v.1.15,2013-08-19 04:47:00,
2013-08-19 00:53:00,68.9,68.3,30.12,SSE,160,0.0,0.0,98,0.00,,,0.01,Wunderground v.1.15,2013-08-19 04:53:00,
2013-08-19 00:59:00,68.8,68.2,30.13,SSE,160,0.0,0.0,98,0.00,,,0.01,Wunderground v.1.15,2013-08-19 04:59:00,
2013-08-19 01:00:00,71.7,69.9,30.14,ESE,112,0.0,1.0,94,0.00,,,-99.99,WeatherLink 6.0.0,2013-08-19 05:00:00,
2013-08-19 01:05:00,68.8,68.2,30.13,SSE,160,0.0,0.0,98,0.00,,,0.01,Wunderground v.1.15,2013-08-19 05:05:00,
2013-08-19 01:10:00,68.8,68.2,30.13,SSE,160,0.0,0.0,98,0.00,,,0.01,Wunderground v.1.15,2013-08-19 05:10:00,
2013-08-19 01:16:00,68.8,68.2,30.12,SSE,160,0.0,0.0,98,0.00,,,0.01,Wunderground v.1.15,2013-08-19 05:16:00,
2013-08-19 01:21:00,68.8,68.2,30.12,SSE,160,0.0,0.0,98,0.00,,,0.02,Wunderground v.1.15,2013-08-19 05:21:00,
2013-08-19 01:27:00,68.8,68.2,30.12,SSE,160,0.0,0.0,98,0.06,,,0.03,Wunderground v.1.15,2013-08-19 05:27:00,
2013-08-19 01:30:00,74.9,71.4,30.13,ESE,112,0.0,1.0,89,0.00,,,-99.99,WeatherLink 6.0.0,2013-08-19 05:30:00,
2013-08-19 01:32:00,68.8,68.5,30.12,SSE,160,0.0,0.0,99,0.06,,,0.03,Wunderground v.1.15,2013-08-19 05:32:00,
2013-08-19 01:37:00,68.8,68.5,30.12,SSE,160,0.0,0.0,99,0.05,,,0.03,Wunderground v.1.15,2013-08-19 05:37:00,
2013-08-19 01:43:00,68.8,68.5,30.12,SSE,160,0.0,0.0,99,0.04,,,0.03,Wunderground v.1.15,2013-08-19 05:43:00,
2013-08-19 01:48:00,68.8,68.5,30.12,SSE,160,0.0,0.0,99,0.00,,,0.03,Wunderground v.1.15,2013-08-19 05:48:00,
2013-08-19 01:54:00,68.7,68.4,30.11,SSE,160,0.0,0.0,99,0.00,,,0.04,Wunderground v.1.15,2013-08-19 05:54:00,
2013-08-19 01:59:00,68.7,68.4,30.11,SSE,160,0.0,0.0,99,0.06,,,0.05,Wunderground v.1.15,2013-08-19 05:59:00,
2013-08-19 02:00:00,76.7,71.5,30.13,ESE,112,0.0,3.0,84,0.00,,,-99.99,WeatherLink 6.0.0,2013-08-19 06:00:00,
2013-08-19 02:04:00,68.6,68.3,30.11,SSE,160,0.0,0.0,99,0.06,,,0.05,Wunderground v.1.15,2013-08-19 06:04:00,
2013-08-19 02:09:00,68.6,68.3,30.10,SSE,160,0.0,0.0,99,0.06,,,0.05,Wunderground v.1.15,2013-08-19 06:09:00,
2013-08-19 02:14:00,68.6,68.3,30.10,SSE,160,0.0,0.0,99,0.04,,,0.05,Wunderground v.1.15,2013-08-19 06:14:00,
2013-08-19 02:19:00,68.6,68.3,30.10,SSE,160,0.0,0.0,99,0.00,,,0.06,Wunderground v.1.15,2013-08-19 06:19:00,
2013-08-19 02:24:00,68.5,68.2,30.09,SSE,160,0.0,0.0,99,0.00,,,0.06,Wunderground v.1.15,2013-08-19 06:24:00,
2013-08-19 02:29:00,68.5,68.2,30.09,SSE,160,0.0,0.0,99,0.07,,,0.07,Wunderground v.1.15,2013-08-19 06:29:00,
2013-08-19 02:30:00,77.8,71.5,30.12,ESE,112,0.0,4.0,81,0.00,,,-99.99,WeatherLink 6.0.0,2013-08-19 06:30:00,
2013-08-19 02:34:00,68.4,68.1,30.09,SSE,160,0.0,0.0,99,0.07,,,0.07,Wunderground v.1.15,2013-08-19 06:34:00,
2013-08-19 02:39:00,68.3,68.0,30.10,SSE,160,0.0,0.0,99,0.04,,,0.07,Wunderground v.1.15,2013-08-19 06:39:00,
2013-08-19 02:44:00,68.3,68.0,30.09,SSE,160,0.0,0.0,99,0.00,,,0.08,Wunderground v.1.15,2013-08-19 06:44:00,
2013-08-19 02:49:00,68.2,67.9,30.10,SSE,160,0.0,0.0,99,0.00,,,0.08,Wunderground v.1.15,2013-08-19 06:49:00,
2013-08-19 02:54:00,68.2,67.9,30.09,SSE,160,0.0,0.0,99,0.00,,,0.08,Wunderground v.1.15,2013-08-19 06:54:00,
2013-08-19 02:59:00,68.2,67.9,30.09,SSE,160,0.0,0.0,99,0.05,,,0.09,Wunderground v.1.15,2013-08-19 06:59:00,
2013-08-19 03:00:00,77.6,71.3,30.12,ESE,112,1.0,4.0,81,0.00,,,-99.99,WeatherLink 6.0.0,2013-08-19 07:00:00,
2013-08-19 03:04:00,68.2,67.9,30.09,SSE,160,0.0,0.0,99,0.05,,,0.09,Wunderground v.1.15,2013-08-19 07:04:00,
2013-08-19 03:09:00,68.1,67.8,30.09,SSE,160,0.0,0.0,99,0.04,,,0.09,Wunderground v.1.15,2013-08-19 07:09:00,
2013-08-19 03:14:00,68.1,67.8,30.09,SSE,160,0.0,0.0,99,0.04,,,0.10,Wunderground v.1.15,2013-08-19 07:14:00,
2013-08-19 03:19:00,68.1,67.8,30.09,SSE,160,0.0,0.0,99,0.04,,,0.10,Wunderground v.1.15,2013-08-19 07:19:00,
2013-08-19 03:24:00,68.1,67.8,30.09,SSE,160,0.0,0.0,99,0.06,,,0.11,Wunderground v.1.15,2013-08-19 07:24:00,
2013-08-19 03:29:00,68.0,67.7,30.08,SSE,160,0.0,0.0,99,0.06,,,0.11,Wunderground v.1.15,2013-08-19 07:29:00,
2013-08-19 03:30:00,77.2,70.9,30.12,ESE,112,1.0,4.0,81,0.00,,,-99.99,WeatherLink 6.0.0,2013-08-19 07:30:00,
2013-08-19 03:34:00,68.0,67.7,30.08,SSE,160,0.0,0.0,99,0.04,,,0.11,Wunderground v.1.15,2013-08-19 07:34:00,
2013-08-19 03:39:00,68.0,67.7,30.09,SSE,160,0.0,0.0,99,0.00,,,0.11,Wunderground v.1.15,2013-08-19 07:39:00,
2013-08-19 03:44:00,68.0,67.7,30.09,SSE,160,0.0,0.0,99,0.00,,,0.11,Wunderground v.1.15,2013-08-19 07:44:00,
2013-08-19 03:49:00,68.0,67.7,30.08,SSE,160,0.0,0.0,99,0.00,,,0.12,Wunderground v.1.15,2013-08-19 07:49:00,
2013-08-19 03:54:00,68.0,67.7,30.08,SSE,160,0.0,0.0,99,0.00,,,0.12,Wunderground v.1.15,2013-08-19 07:54:00,
2013-08-19 03:59:00,67.9,67.6,30.08,SSE,160,0.0,0.0,99,0.00,,,0.12,Wunderground v.1.15,2013-08-19 07:59:00,
2013-08-19 04:00:00,77.3,71.7,30.11,SE,135,0.0,5.0,83,0.00,,,-99.99,WeatherLink 6.0.0,2013-08-19 08:00:00,
2013-08-19 04:04:00,67.9,67.6,30.09,SSE,160,0.0,0.0,99,0.00,,,0.12,Wunderground v.1.15,2013-08-19 08:04:00,
2013-08-19 04:09:00,67.9,67.6,30.09,SSE,160,0.0,0.0,99,0.00,,,0.12,Wunderground v.1.15,2013-08-19 08:09:00,
2013-08-19 04:14:00,67.8,67.5,30.08,SSE,160,0.0,0.0,99,0.00,,,0.12,Wunderground v.1.15,2013-08-19 08:14:00,
2013-08-19 04:19:00,67.8,67.5,30.08,SSE,160,0.0,0.0,99,0.00,,,0.13,Wunderground v.1.15,2013-08-19 08:19:00,
2013-08-19 04:24:00,67.8,67.5,30.09,SSE,160,0.0,0.0,99,0.00,,,0.13,Wunderground v.1.15,2013-08-19 08:24:00,
2013-08-19 04:29:00,67.8,67.5,30.09,SSE,160,0.0,0.0,99,0.00,,,0.13,Wunderground v.1.15,2013-08-19 08:29:00,
2013-08-19 04:30:00,78.1,72.5,30.10,ESE,112,1.0,6.0,83,0.00,,,-99.99,WeatherLink 6.0.0,2013-08-19 08:30:00,
2013-08-19 04:34:00,67.7,67.4,30.09,SSE,160,0.0,0.0,99,0.00,,,0.13,Wunderground v.1.15,2013-08-19 08:34:00,
2013-08-19 04:39:00,67.7,67.4,30.09,SSE,160,0.0,0.0,99,0.00,,,0.13,Wunderground v.1.15,2013-08-19 08:39:00,
2013-08-19 04:44:00,67.7,67.4,30.09,SSE,160,0.0,0.0,99,0.00,,,0.14,Wunderground v.1.15,2013-08-19 08:44:00,
2013-08-19 04:49:00,67.8,67.5,30.09,SSE,160,0.0,0.0,99,0.00,,,0.14,Wunderground v.1.15,2013-08-19 08:49:00,
2013-08-19 04:54:00,67.8,67.5,30.09,SSE,160,0.0,0.0,99,0.06,,,0.15,Wunderground v.1.15,2013-08-19 08:54:00,
2013-08-19 05:00:00,67.8,67.5,30.09,SSE,160,0.0,0.0,99,0.06,,,0.15,Wunderground v.1.15,2013-08-19 09:00:00,
2013-08-19 05:05:00,67.7,67.4,30.09,SSE,160,0.0,0.0,99,0.04,,,0.15,Wunderground v.1.15,2013-08-19 09:05:00,
2013-08-19 05:10:00,67.7,67.4,30.09,SSE,160,0.0,0.0,99,0.04,,,0.16,Wunderground v.1.15,2013-08-19 09:10:00,
2013-08-19 05:15:00,67.7,67.4,30.09,SSE,160,0.0,0.0,99,0.04,,,0.16,Wunderground v.1.15,2013-08-19 09:15:00,
2013-08-19 05:20:00,67.7,67.4,30.09,SSE,160,0.0,0.0,99,0.06,,,0.17,Wunderground v.1.15,2013-08-19 09:20:00,
2013-08-19 05:25:00,67.6,67.3,30.09,SSE,160,0.0,0.0,99,0.06,,,0.17,Wunderground v.1.15,2013-08-19 09:25:00,
2013-08-19 05:30:00,67.6,67.3,30.09,SSE,160,0.0,0.0,99,0.05,,,0.17,Wunderground v.1.15,2013-08-19 09:30:00,
2013-08-19 05:35:00,67.6,67.3,30.09,SSE,160,0.0,0.0,99,0.00,,,0.17,Wunderground v.1.15,2013-08-19 09:35:00,
2013-08-19 05:40:00,67.5,67.2,30.09,SSE,160,0.0,0.0,99,0.00,,,0.17,Wunderground v.1.15,2013-08-19 09:40:00,
2013-08-19 05:45:00,67.5,67.2,30.09,SSE,160,0.0,0.0,99,0.00,,,0.18,Wunderground v.1.15,2013-08-19 09:45:00,
2013-08-19 05:50:00,67.4,67.1,30.09,SSE,160,0.0,0.0,99,0.00,,,0.18,Wunderground v.1.15,2013-08-19 09:50:00,
2013-08-19 05:55:00,67.4,67.1,30.09,SSE,160,0.0,0.0,99,0.06,,,0.19,Wunderground v.1.15,2013-08-19 09:55:00,
2013-08-19 06:00:00,67.5,67.2,30.09,SSE,160,0.0,0.0,99,0.06,,,0.19,Wunderground v.1.15,2013-08-19 10:00:00,
2013-08-19 06:05:00,67.5,67.2,30.09,SSE,160,0.0,0.0,99,0.05,,,0.20,Wunderground v.1.15,2013-08-19 10:05:00,
2013-08-19 06:10:00,67.5,67.2,30.09,SSE,160,0.0,0.0,99,0.05,,,0.20,Wunderground v.1.15,2013-08-19 10:10:00,
2013-08-19 06:15:00,67.4,67.1,30.09,SSE,160,0.0,0.0,99,0.10,,,0.21,Wunderground v.1.15,2013-08-19 10:15:00,
2013-08-19 06:20:00,67.4,67.1,30.09,SSE,160,0.0,0.0,99,0.06,,,0.21,Wunderground v.1.15,2013-08-19 10:20:00,
2013-08-19 06:25:00,67.3,67.0,30.09,SSE,160,0.0,0.0,99,0.06,,,0.22,Wunderground v.1.15,2013-08-19 10:25:00,
2013-08-19 06:30:00,67.3,67.0,30.09,SSE,160,0.0,0.0,99,0.09,,,0.23,Wunderground v.1.15,2013-08-19 10:30:00,
2013-08-19 06:35:00,67.2,66.9,30.09,SSE,160,0.0,0.0,99,0.08,,,0.23,Wunderground v.1.15,2013-08-19 10:35:00,
2013-08-19 06:40:00,67.2,66.9,30.08,SSE,160,0.0,0.0,99,0.05,,,0.23,Wunderground v.1.15,2013-08-19 10:40:00,
2013-08-19 06:45:00,67.3,67.0,30.08,SSE,160,0.0,0.0,99,0.00,,,0.23,Wunderground v.1.15,2013-08-19 10:45:00,
2013-08-19 06:50:00,67.3,67.0,30.08,SSE,160,0.0,0.0,99,0.00,,,0.24,Wunderground v.1.15,2013-08-19 10:50:00,
2013-08-19 06:55:00,67.3,67.0,30.08,SSE,160,0.0,0.0,99,0.00,,,0.24,Wunderground v.1.15,2013-08-19 10:55:00,
2013-08-19 07:00:00,67.3,67.0,30.07,SSE,160,0.0,0.0,99,0.00,,,0.24,Wunderground v.1.15,2013-08-19 11:00:00,
2013-08-19 07:05:00,67.3,67.0,30.07,SSE,160,0.0,2.0,99,0.04,,,0.25,Wunderground v.1.15,2013-08-19 11:05:00,
2013-08-19 07:10:00,67.2,66.9,30.08,SSE,160,0.0,0.0,99,0.04,,,0.25,Wunderground v.1.15,2013-08-19 11:10:00,
2013-08-19 07:15:00,67.2,66.9,30.07,SSE,160,0.0,0.0,99,0.04,,,0.25,Wunderground v.1.15,2013-08-19 11:15:00,
2013-08-19 07:20:00,67.3,67.0,30.07,SSE,160,0.0,0.0,99,0.04,,,0.25,Wunderground v.1.15,2013-08-19 11:20:00,
2013-08-19 07:25:00,67.3,67.0,30.08,SSE,160,0.0,0.0,99,0.00,,,0.25,Wunderground v.1.15,2013-08-19 11:25:00,
2013-08-19 07:30:00,67.3,67.0,30.08,SSE,160,0.0,0.0,99,0.00,,,0.25,Wunderground v.1.15,2013-08-19 11:30:00,
2013-08-19 07:35:00,67.4,67.1,30.07,SSE,160,0.0,0.0,99,0.00,,,0.25,Wunderground v.1.15,2013-08-19 11:35:00,
2013-08-19 07:40:00,67.4,67.1,30.08,SSE,160,0.0,0.0,99,0.00,,,0.25,Wunderground v.1.15,2013-08-19 11:40:00,
2013-08-19 07:45:00,67.4,67.1,30.08,SSE,160,0.0,0.0,99,0.00,,,0.25,Wunderground v.1.15,2013-08-19 11:45:00,
2013-08-19 07:50:00,67.4,67.1,30.08,SSE,160,0.0,0.0,99,0.00,,,0.25,Wunderground v.1.15,2013-08-19 11:50:00,
2013-08-19 07:55:00,67.5,67.2,30.08,SSE,160,0.0,0.0,99,0.00,,,0.25,Wunderground v.1.15,2013-08-19 11:55:00,
2013-08-19 08:00:00,67.5,67.2,30.07,SSE,160,0.0,0.0,99,0.00,,,0.25,Wunderground v.1.15,2013-08-19 12:00:00,
2013-08-19 08:06:00,67.4,67.1,30.08,SSE,160,0.0,0.0,99,0.00,,,0.25,Wunderground v.1.15,2013-08-19 12:06:00,
2013-08-19 08:11:00,67.3,67.0,30.08,SSE,160,0.0,0.0,99,0.00,,,0.25,Wunderground v.1.15,2013-08-19 12:11:00,
2013-08-19 08:16:00,67.4,67.1,30.08,SSE,160,0.0,0.0,99,0.00,,,0.25,Wunderground v.1.15,2013-08-19 12:16:00,
2013-08-19 08:21:00,67.5,67.2,30.06,SSE,149,1.0,4.0,99,0.00,,,0.25,Wunderground v.1.15,2013-08-19 12:21:00,
2013-08-19 08:26:00,67.5,67.2,30.07,SSE,149,0.0,4.0,99,0.00,,,0.25,Wunderground v.1.15,2013-08-19 12:26:00,
2013-08-19 08:30:00,76.9,71.3,30.07,ESE,112,1.0,5.0,83,0.00,,,-99.99,WeatherLink 6.0.0,2013-08-19 12:30:00,
2013-08-19 08:31:00,67.4,67.1,30.07,SSE,150,0.0,0.0,99,0.00,,,0.25,Wunderground v.1.15,2013-08-19 12:31:00,
2013-08-19 08:36:00,67.5,67.2,30.07,SSE,150,0.0,0.0,99,0.00,,,0.25,Wunderground v.1.15,2013-08-19 12:36:00,
2013-08-19 08:41:00,67.5,67.2,30.07,SSE,149,0.0,0.0,99,0.00,,,0.25,Wunderground v.1.15,2013-08-19 12:41:00,
2013-08-19 08:46:00,67.5,67.2,30.08,SSE,149,0.0,0.0,99,0.00,,,0.25,Wunderground v.1.15,2013-08-19 12:46:00,
2013-08-19 08:51:00,67.6,67.3,30.08,SSE,149,0.0,0.0,99,0.00,,,0.25,Wunderground v.1.15,2013-08-19 12:51:00,
2013-08-19 08:56:00,67.7,67.4,30.07,SSE,150,0.0,0.0,99,0.00,,,0.25,Wunderground v.1.15,2013-08-19 12:56:00,
2013-08-19 09:00:00,75.6,71.5,30.08,ESE,112,0.0,3.0,87,0.00,,,-99.99,WeatherLink 6.0.0,2013-08-19 13:00:00,
2013-08-19 09:01:00,67.9,67.6,30.07,SSE,150,0.0,0.0,99,0.00,,,0.25,Wunderground v.1.15,2013-08-19 13:01:00,
2013-08-19 09:06:00,67.9,67.6,30.08,SSE,149,0.0,0.0,99,0.00,,,0.25,Wunderground v.1.15,2013-08-19 13:06:00,
2013-08-19 09:11:00,67.8,67.5,30.08,SSE,149,0.0,0.0,99,0.00,,,0.26,Wunderground v.1.15,2013-08-19 13:11:00,
2013-08-19 09:16:00,67.7,67.4,30.08,SSE,150,0.0,0.0,99,0.00,,,0.26,Wunderground v.1.15,2013-08-19 13:16:00,
2013-08-19 09:21:00,67.7,67.4,30.09,SSE,150,0.0,0.0,99,0.00,,,0.26,Wunderground v.1.15,2013-08-19 13:21:00,
2013-08-19 09:26:00,67.8,67.5,30.08,SSE,149,0.0,0.0,99,0.00,,,0.26,Wunderground v.1.15,2013-08-19 13:26:00,
2013-08-19 09:30:00,74.4,70.9,30.09,North,-999,0.0,0.0,89,0.00,,,-99.99,WeatherLink 6.0.0,2013-08-19 13:30:00,
2013-08-19 09:31:00,67.7,67.4,30.08,SSE,149,0.0,0.0,99,0.04,,,0.27,Wunderground v.1.15,2013-08-19 13:31:00,
2013-08-19 09:36:00,67.6,67.3,30.07,SSE,150,0.0,0.0,99,0.04,,,0.27,Wunderground v.1.15,2013-08-19 13:36:00,
2013-08-19 09:41:00,67.6,67.3,30.07,SSE,149,0.0,0.0,99,0.04,,,0.27,Wunderground v.1.15,2013-08-19 13:41:00,
2013-08-19 09:46:00,67.8,67.5,30.07,SSE,150,0.0,1.0,99,0.00,,,0.28,Wunderground v.1.15,2013-08-19 13:46:00,
2013-08-19 09:51:00,67.9,67.6,30.08,SSE,150,0.0,0.0,99,0.00,,,0.28,Wunderground v.1.15,2013-08-19 13:51:00,
2013-08-19 09:56:00,67.9,67.6,30.08,SSE,150,0.0,0.0,99,0.06,,,0.29,Wunderground v.1.15,2013-08-19 13:56:00,
2013-08-19 10:00:00,72.7,70.6,30.09,North,-999,0.0,0.0,93,0.00,,,-99.99,WeatherLink 6.0.0,2013-08-19 14:00:00,
2013-08-19 10:01:00,68.1,67.8,30.08,SSE,150,0.0,0.0,99,0.06,,,0.29,Wunderground v.1.15,2013-08-19 14:01:00,
2013-08-19 10:06:00,68.2,67.9,30.08,SSE,150,0.0,0.0,99,0.05,,,0.29,Wunderground v.1.15,2013-08-19 14:06:00,
2013-08-19 10:11:00,68.2,67.9,30.09,SSE,150,0.0,0.0,99,0.00,,,0.29,Wunderground v.1.15,2013-08-19 14:11:00,
2013-08-19 10:16:00,68.2,67.9,30.09,SSE,149,0.0,0.0,99,0.00,,,0.29,Wunderground v.1.15,2013-08-19 14:16:00,
2013-08-19 10:21:00,68.4,68.1,30.08,SSE,150,0.0,0.0,99,0.00,,,0.29,Wunderground v.1.15,2013-08-19 14:21:00,
2013-08-19 10:26:00,68.5,68.2,30.08,SSE,150,0.0,0.0,99,0.00,,,0.01,Wunderground v.1.15,2013-08-19 14:26:00,
2013-08-19 10:30:00,72.1,70.3,30.09,North,-999,0.0,0.0,94,0.00,,,-99.99,WeatherLink 6.0.0,2013-08-19 14:30:00,
2013-08-19 10:32:00,68.5,68.2,30.08,SSE,150,0.0,0.0,99,0.00,,,0.01,Wunderground v.1.15,2013-08-19 14:32:00,
2013-08-19 10:37:00,68.3,68.0,30.09,SSE,149,0.0,0.0,99,0.00,,,0.01,Wunderground v.1.15,2013-08-19 14:37:00,
2013-08-19 10:42:00,68.2,67.9,30.10,SSE,150,0.0,0.0,99,0.04,,,0.02,Wunderground v.1.15,2013-08-19 14:42:00,
2013-08-19 10:47:00,68.2,67.9,30.10,SSE,150,0.0,0.0,99,0.04,,,0.02,Wunderground v.1.15,2013-08-19 14:47:00,
2013-08-19 10:52:00,68.1,67.8,30.11,SSE,149,0.0,0.0,99,0.04,,,0.02,Wunderground v.1.15,2013-08-19 14:52:00,
2013-08-19 10:57:00,68.1,67.8,30.11,SSE,150,0.0,0.0,99,0.04,,,0.03,Wunderground v.1.15,2013-08-19 14:57:00,
2013-08-19 11:00:00,71.3,69.8,30.10,North,-999,0.0,0.0,95,0.00,,,-99.99,WeatherLink 6.0.0,2013-08-19 15:00:00,
2013-08-19 11:02:00,68.2,67.9,30.12,SSE,150,0.0,0.0,99,0.09,,,0.04,Wunderground v.1.15,2013-08-19 15:02:00,
2013-08-19 11:07:00,68.1,67.8,30.11,SSE,149,0.0,0.0,99,0.09,,,0.04,Wunderground v.1.15,2013-08-19 15:07:00,
2013-08-19 11:12:00,68.3,68.0,30.12,SSE,150,0.0,0.0,99,0.09,,,0.05,Wunderground v.1.15,2013-08-19 15:12:00,
2013-08-19 11:17:00,68.4,68.1,30.12,SSE,149,0.0,2.0,99,0.12,,,0.06,Wunderground v.1.15,2013-08-19 15:17:00,
2013-08-19 11:22:00,68.4,68.1,30.11,SSE,150,0.0,0.0,99,0.07,,,0.06,Wunderground v.1.15,2013-08-19 15:22:00,
2013-08-19 11:27:00,68.6,68.3,30.12,SSE,150,1.0,1.0,99,0.05,,,0.07,Wunderground v.1.15,2013-08-19 15:27:00,
2013-08-19 11:30:00,70.5,69.3,30.11,North,-999,0.0,0.0,96,0.00,,,-99.99,WeatherLink 6.0.0,2013-08-19 15:30:00,
2013-08-19 11:32:00,68.7,68.4,30.12,SSE,150,0.0,1.0,99,0.05,,,0.07,Wunderground v.1.15,2013-08-19 15:32:00,
2013-08-19 11:37:00,68.7,68.4,30.11,SSE,149,0.0,1.0,99,0.05,,,0.07,Wunderground v.1.15,2013-08-19 15:37:00,
2013-08-19 11:42:00,68.4,68.1,30.12,SSE,150,0.0,1.0,99,0.00,,,0.07,Wunderground v.1.15,2013-08-19 15:42:00,
2013-08-19 11:47:00,68.6,68.3,30.11,SSE,149,0.0,1.0,99,0.00,,,0.07,Wunderground v.1.15,2013-08-19 15:47:00,
2013-08-19 11:53:00,68.7,68.4,30.11,SSE,150,0.0,1.0,99,0.00,,,0.07,Wunderground v.1.15,2013-08-19 15:53:00,
2013-08-19 11:58:00,68.8,68.5,30.11,SSE,149,0.0,1.0,99,0.00,,,0.07,Wunderground v.1.15,2013-08-19 15:58:00,
2013-08-19 12:00:00,69.8,68.9,30.12,North,-999,0.0,0.0,97,0.00,,,-99.99,WeatherLink 6.0.0,2013-08-19 16:00:00,
2013-08-19 12:03:00,68.6,68.3,30.11,SSE,150,0.0,1.0,99,0.00,,,0.07,Wunderground v.1.15,2013-08-19 16:03:00,
2013-08-19 12:08:00,68.5,68.2,30.11,SSE,150,0.0,1.0,99,0.00,,,0.07,Wunderground v.1.15,2013-08-19 16:08:00,
2013-08-19 12:13:00,68.6,68.3,30.11,SSE,150,0.0,1.0,99,0.00,,,0.08,Wunderground v.1.15,2013-08-19 16:13:00,
2013-08-19 12:18:00,68.7,68.4,30.11,SSE,150,1.0,1.0,99,0.00,,,0.08,Wunderground v.1.15,2013-08-19 16:18:00,
2013-08-19 12:23:00,68.7,68.4,30.10,SSE,149,0.0,0.0,99,0.00,,,0.08,Wunderground v.1.15,2013-08-19 16:23:00,
2013-08-19 12:28:00,68.8,68.5,30.10,SSE,149,0.0,1.0,99,0.00,,,0.08,Wunderground v.1.15,2013-08-19 16:28:00,
2013-08-19 12:30:00,69.1,68.2,30.12,North,-999,0.0,0.0,97,0.00,,,-99.99,WeatherLink 6.0.0,2013-08-19 16:30:00,
2013-08-19 12:33:00,68.8,68.5,30.10,SSE,150,0.0,1.0,99,0.00,,,0.08,Wunderground v.1.15,2013-08-19 16:33:00,
2013-08-19 12:38:00,68.8,68.2,30.11,SSE,150,0.0,1.0,98,0.00,,,0.08,Wunderground v.1.15,2013-08-19 16:38:00,
2013-08-19 12:43:00,68.8,68.2,30.10,SSE,149,0.0,0.0,98,0.00,,,0.08,Wunderground v.1.15,2013-08-19 16:43:00,
2013-08-19 12:48:00,69.0,68.4,30.10,SSE,150,0.0,1.0,98,0.00,,,0.08,Wunderground v.1.15,2013-08-19 16:48:00,
2013-08-19 12:53:00,69.1,68.5,30.10,SSE,150,0.0,0.0,98,0.00,,,0.08,Wunderground v.1.15,2013-08-19 16:53:00,
2013-08-19 12:58:00,69.3,68.7,30.10,SSE,149,0.0,0.0,98,0.00,,,0.08,Wunderground v.1.15,2013-08-19 16:58:00,
2013-08-19 13:00:00,68.3,67.4,30.13,North,-999,0.0,0.0,97,0.00,,,-99.99,WeatherLink 6.0.0,2013-08-19 17:00:00,
2013-08-19 13:03:00,69.4,68.8,30.10,SSE,150,0.0,0.0,98,0.00,,,0.08,Wunderground v.1.15,2013-08-19 17:03:00,
2013-08-19 13:08:00,69.4,68.8,30.10,SSE,149,0.0,0.0,98,0.00,,,0.08,Wunderground v.1.15,2013-08-19 17:08:00,
2013-08-19 13:14:00,69.5,68.6,30.10,SSE,149,0.0,1.0,97,0.00,,,0.08,Wunderground v.1.15,2013-08-19 17:14:00,
2013-08-19 13:19:00,69.6,68.7,30.10,SSE,150,0.0,2.0,97,0.00,,,0.08,Wunderground v.1.15,2013-08-19 17:19:00,
2013-08-19 13:24:00,69.8,68.9,30.10,SSE,149,0.0,1.0,97,0.00,,,0.08,Wunderground v.1.15,2013-08-19 17:24:00,
2013-08-19 13:29:00,70.4,69.8,30.10,SE,133,0.0,3.0,98,0.00,,,0.08,Wunderground v.1.15,2013-08-19 17:29:00,
2013-08-19 13:30:00,67.9,67.3,30.13,North,-999,0.0,0.0,98,0.00,,,-99.99,WeatherLink 6.0.0,2013-08-19 17:30:00,
2013-08-19 13:34:00,70.6,69.7,30.10,SE,136,4.0,4.0,97,0.00,,,0.08,Wunderground v.1.15,2013-08-19 17:34:00,
2013-08-19 13:39:00,70.4,69.2,30.10,SE,130,0.0,4.0,96,0.00,,,0.08,Wunderground v.1.15,2013-08-19 17:39:00,
2013-08-19 13:44:00,70.7,69.5,30.10,SE,130,0.0,2.0,96,0.00,,,0.08,Wunderground v.1.15,2013-08-19 17:44:00,
2013-08-19 13:49:00,70.7,69.2,30.10,SE,130,0.0,2.0,95,0.00,,,0.08,Wunderground v.1.15,2013-08-19 17:49:00,
2013-08-19 13:54:00,70.5,69.0,30.10,SE,130,0.0,1.0,95,0.00,,,0.08,Wunderground v.1.15,2013-08-19 17:54:00,
2013-08-19 13:59:00,70.7,69.2,30.10,SE,130,0.0,1.0,95,0.00,,,0.08,Wunderground v.1.15,2013-08-19 17:59:00,
2013-08-19 14:00:00,67.6,67.0,30.13,North,-999,0.0,0.0,98,0.00,,,-99.99,WeatherLink 6.0.0,2013-08-19 18:00:00,
2013-08-19 14:04:00,70.7,68.9,30.10,SE,130,0.0,0.0,94,0.00,,,0.08,Wunderground v.1.15,2013-08-19 18:04:00,
2013-08-19 14:09:00,70.6,68.5,30.09,SE,130,0.0,1.0,93,0.00,,,0.08,Wunderground v.1.15,2013-08-19 18:09:00,
2013-08-19 14:14:00,70.7,68.9,30.09,SE,130,0.0,1.0,94,0.00,,,0.08,Wunderground v.1.15,2013-08-19 18:14:00,
2013-08-19 14:19:00,71.0,68.9,30.09,SE,130,0.0,1.0,93,0.00,,,0.08,Wunderground v.1.15,2013-08-19 18:19:00,
2013-08-19 14:24:00,71.3,68.9,30.09,SE,131,0.0,1.0,92,0.00,,,0.08,Wunderground v.1.15,2013-08-19 18:24:00,
2013-08-19 14:29:00,71.6,69.5,30.09,SE,130,0.0,0.0,93,0.00,,,0.08,Wunderground v.1.15,2013-08-19 18:29:00,
2013-08-19 14:30:00,67.2,66.6,30.14,ESE,112,0.0,1.0,98,0.00,,,-99.99,WeatherLink 6.0.0,2013-08-19 18:30:00,
2013-08-19 14:35:00,71.9,69.4,30.08,ESE,118,0.0,1.0,92,0.00,,,0.08,Wunderground v.1.15,2013-08-19 18:35:00,
2013-08-19 14:40:00,72.6,69.8,30.09,ESE,118,0.0,0.0,91,0.00,,,0.08,Wunderground v.1.15,2013-08-19 18:40:00,
2013-08-19 14:45:00,73.0,70.2,30.08,ESE,119,0.0,1.0,91,0.00,,,0.08,Wunderground v.1.15,2013-08-19 18:45:00,
2013-08-19 14:50:00,73.3,69.9,30.08,ESE,123,0.0,1.0,89,0.00,,,0.08,Wunderground v.1.15,2013-08-19 18:50:00,
2013-08-19 14:55:00,73.3,69.2,30.08,SE,128,0.0,4.0,87,0.00,,,0.08,Wunderground v.1.15,2013-08-19 18:55:00,
2013-08-19 15:00:00,73.3,69.2,30.08,SE,128,0.0,0.0,87,0.00,,,0.08,Wunderground v.1.15,2013-08-19 19:00:00,
2013-08-19 15:05:00,73.7,69.2,30.07,ESE,119,0.0,5.0,86,0.00,,,0.08,Wunderground v.1.15,2013-08-19 19:05:00,
2013-08-19 15:10:00,74.0,69.9,30.07,ESE,121,0.0,1.0,87,0.00,,,0.08,Wunderground v.1.15,2013-08-19 19:10:00,
2013-08-19 15:15:00,74.2,69.1,30.07,ESE,121,0.0,1.0,84,0.00,,,0.08,Wunderground v.1.15,2013-08-19 19:15:00,
2013-08-19 15:20:00,74.2,69.7,30.06,ESE,121,0.0,0.0,86,0.00,,,0.08,Wunderground v.1.15,2013-08-19 19:20:00,
2013-08-19 15:25:00,74.4,70.6,30.06,ESE,121,0.0,2.0,88,0.00,,,0.08,Wunderground v.1.15,2013-08-19 19:25:00,
2013-08-19 15:30:00,74.6,69.4,30.06,ESE,123,0.0,1.0,84,0.00,,,0.08,Wunderground v.1.15,2013-08-19 19:30:00,
2013-08-19 15:35:00,74.8,70.7,30.06,ESE,123,0.0,1.0,87,0.00,,,0.08,Wunderground v.1.15,2013-08-19 19:35:00,
2013-08-19 15:40:00,74.9,70.4,30.06,ESE,123,0.0,0.0,86,0.00,,,0.08,Wunderground v.1.15,2013-08-19 19:40:00,
2013-08-19 15:45:00,74.9,69.0,30.06,SE,127,0.0,1.0,82,0.00,,,0.08,Wunderground v.1.15,2013-08-19 19:45:00,
2013-08-19 15:51:00,75.3,69.4,30.05,SE,126,0.0,2.0,82,0.00,,,0.08,Wunderground v.1.15,2013-08-19 19:51:00,
2013-08-19 15:56:00,75.6,70.4,30.05,SE,127,0.0,2.0,84,0.00,,,0.08,Wunderground v.1.15,2013-08-19 19:56:00,
2013-08-19 16:00:00,67.4,67.1,30.11,North,-999,0.0,0.0,99,0.00,,,-99.99,WeatherLink 6.0.0,2013-08-19 20:00:00,
2013-08-19 16:01:00,75.7,70.9,30.05,SE,126,0.0,0.0,85,0.00,,,0.08,Wunderground v.1.15,2013-08-19 20:01:00,
2013-08-19 16:06:00,75.7,70.5,30.05,SE,127,1.0,1.0,84,0.00,,,0.08,Wunderground v.1.15,2013-08-19 20:06:00,
2013-08-19 16:11:00,75.7,70.2,30.04,SE,127,0.0,0.0,83,0.00,,,0.08,Wunderground v.1.15,2013-08-19 20:11:00,
2013-08-19 16:16:00,75.3,69.4,30.05,SE,127,0.0,1.0,82,0.00,,,0.08,Wunderground v.1.15,2013-08-19 20:16:00,
2013-08-19 16:21:00,75.4,69.5,30.04,SE,126,0.0,0.0,82,0.00,,,0.08,Wunderground v.1.15,2013-08-19 20:21:00,
2013-08-19 16:26:00,76.0,69.4,30.04,SE,127,0.0,1.0,80,0.00,,,0.08,Wunderground v.1.15,2013-08-19 20:26:00,
2013-08-19 16:30:00,67.2,66.6,30.10,North,-999,0.0,0.0,98,0.00,,,-99.99,WeatherLink 6.0.0,2013-08-19 20:30:00,
2013-08-19 16:31:00,76.4,70.5,30.04,SE,127,0.0,0.0,82,0.00,,,0.08,Wunderground v.1.15,2013-08-19 20:31:00,
2013-08-19 16:36:00,76.6,70.3,30.04,SE,126,0.0,1.0,81,0.00,,,0.08,Wunderground v.1.15,2013-08-19 20:36:00,
2013-08-19 16:41:00,76.3,70.4,30.04,SE,126,0.0,2.0,82,0.00,,,0.08,Wunderground v.1.15,2013-08-19 20:41:00,
2013-08-19 16:46:00,76.1,70.2,30.04,SE,126,3.0,3.0,82,0.00,,,0.08,Wunderground v.1.15,2013-08-19 20:46:00,
2013-08-19 16:51:00,76.0,69.7,30.04,SE,126,0.0,1.0,81,0.00,,,0.08,Wunderground v.1.15,2013-08-19 20:51:00,
2013-08-19 16:56:00,76.0,69.7,30.04,SE,128,0.0,2.0,81,0.00,,,0.08,Wunderground v.1.15,2013-08-19 20:56:00,
2013-08-19 17:00:00,67.1,66.8,30.10,North,-999,0.0,0.0,99,0.00,,,-99.99,WeatherLink 6.0.0,2013-08-19 21:00:00,
2013-08-19 17:01:00,76.1,69.5,30.03,ESE,119,1.0,1.0,80,0.00,,,0.08,Wunderground v.1.15,2013-08-19 21:01:00,
2013-08-19 17:06:00,76.3,70.4,30.03,ESE,119,2.0,5.0,82,0.00,,,0.08,Wunderground v.1.15,2013-08-19 21:06:00,
2013-08-19 17:11:00,76.6,69.6,30.03,ESE,119,0.0,1.0,79,0.00,,,0.08,Wunderground v.1.15,2013-08-19 21:11:00,
2013-08-19 17:16:00,76.5,69.5,30.03,ESE,119,1.0,3.0,79,0.00,,,0.08,Wunderground v.1.15,2013-08-19 21:16:00,
2013-08-19 17:21:00,76.1,69.5,30.03,ESE,119,1.0,1.0,80,0.00,,,0.08,Wunderground v.1.15,2013-08-19 21:21:00,
2013-08-19 17:26:00,76.1,69.5,30.03,ESE,110,0.0,4.0,80,0.00,,,0.08,Wunderground v.1.15,2013-08-19 21:26:00,
2013-08-19 17:30:00,67.1,66.8,30.09,North,-999,0.0,0.0,99,0.00,,,-99.99,WeatherLink 6.0.0,2013-08-19 21:30:00,
2013-08-19 17:31:00,76.1,69.5,30.03,ESE,110,0.0,2.0,80,0.00,,,0.08,Wunderground v.1.15,2013-08-19 21:31:00,
2013-08-19 17:36:00,76.1,70.6,30.03,ESE,110,0.0,2.0,83,0.00,,,0.08,Wunderground v.1.15,2013-08-19 21:36:00,
2013-08-19 17:41:00,76.0,69.7,30.03,ESE,110,0.0,0.0,81,0.00,,,0.08,Wunderground v.1.15,2013-08-19 21:41:00,
2013-08-19 17:46:00,75.8,70.3,30.03,ESE,110,0.0,2.0,83,0.00,,,0.08,Wunderground v.1.15,2013-08-19 21:46:00,
2013-08-19 17:51:00,75.8,70.6,30.03,ESE,110,0.0,1.0,84,0.00,,,0.08,Wunderground v.1.15,2013-08-19 21:51:00,
2013-08-19 17:56:00,76.0,70.1,30.03,ESE,110,1.0,2.0,82,0.00,,,0.08,Wunderground v.1.15,2013-08-19 21:56:00,
2013-08-19 18:00:00,67.3,67.0,30.09,North,-999,0.0,0.0,99,0.00,,,-99.99,WeatherLink 6.0.0,2013-08-19 22:00:00,
2013-08-19 18:01:00,76.0,69.7,30.03,ESE,110,0.0,1.0,81,0.00,,,0.08,Wunderground v.1.15,2013-08-19 22:01:00,
2013-08-19 18:06:00,75.8,70.3,30.03,ESE,110,0.0,1.0,83,0.00,,,0.08,Wunderground v.1.15,2013-08-19 22:06:00,
2013-08-19 18:11:00,75.8,70.3,30.03,ESE,110,0.0,0.0,83,0.00,,,0.08,Wunderground v.1.15,2013-08-19 22:11:00,
2013-08-19 18:16:00,75.9,70.0,30.03,ESE,110,0.0,1.0,82,0.00,,,0.08,Wunderground v.1.15,2013-08-19 22:16:00,
2013-08-19 18:21:00,75.8,69.9,30.03,ESE,110,0.0,1.0,82,0.00,,,0.08,Wunderground v.1.15,2013-08-19 22:21:00,
2013-08-19 18:26:00,75.6,70.1,30.03,ESE,110,0.0,1.0,83,0.00,,,0.08,Wunderground v.1.15,2013-08-19 22:26:00,
2013-08-19 18:30:00,67.0,66.7,30.09,North,-999,0.0,0.0,99,0.00,,,-99.99,WeatherLink 6.0.0,2013-08-19 22:30:00,
2013-08-19 18:31:00,75.7,70.9,30.03,ESE,110,0.0,0.0,85,0.00,,,0.08,Wunderground v.1.15,2013-08-19 22:31:00,
2013-08-19 18:36:00,75.7,70.2,30.03,ESE,110,0.0,1.0,83,0.00,,,0.08,Wunderground v.1.15,2013-08-19 22:36:00,
2013-08-19 18:41:00,75.4,69.5,30.02,ESE,110,0.0,3.0,82,0.00,,,0.08,Wunderground v.1.15,2013-08-19 22:41:00,
2013-08-19 18:46:00,75.1,69.9,30.02,ESE,110,0.0,3.0,84,0.00,,,0.08,Wunderground v.1.15,2013-08-19 22:46:00,
2013-08-19 18:51:00,74.7,69.9,30.02,ESE,110,0.0,0.0,85,0.00,,,0.08,Wunderground v.1.15,2013-08-19 22:51:00,
2013-08-19 18:56:00,74.3,69.5,30.03,ESE,110,0.0,1.0,85,0.00,,,0.08,Wunderground v.1.15,2013-08-19 22:56:00,
2013-08-19 19:00:00,67.2,66.9,30.09,North,-999,0.0,0.0,99,0.00,,,-99.99,WeatherLink 6.0.0,2013-08-19 23:00:00,
2013-08-19 19:01:00,74.1,70.0,30.03,ESE,110,0.0,0.0,87,0.00,,,0.08,Wunderground v.1.15,2013-08-19 23:01:00,
2013-08-19 19:07:00,73.9,69.8,30.03,ESE,110,0.0,0.0,87,0.00,,,0.08,Wunderground v.1.15,2013-08-19 23:07:00,
2013-08-19 19:12:00,73.7,69.9,30.03,ESE,110,0.0,0.0,88,0.00,,,0.08,Wunderground v.1.15,2013-08-19 23:12:00,
2013-08-19 19:17:00,73.1,69.7,30.03,ESE,110,0.0,0.0,89,0.00,,,0.08,Wunderground v.1.15,2013-08-19 23:17:00,
2013-08-19 19:22:00,72.6,69.5,30.03,ESE,110,0.0,0.0,90,0.00,,,0.08,Wunderground v.1.15,2013-08-19 23:22:00,
2013-08-19 19:27:00,72.2,69.4,30.03,ESE,110,0.0,0.0,91,0.00,,,0.08,Wunderground v.1.15,2013-08-19 23:27:00,
2013-08-19 19:30:00,67.3,67.0,30.11,North,-999,0.0,0.0,99,0.00,,,-99.99,WeatherLink 6.0.0,2013-08-19 23:30:00,
2013-08-19 19:32:00,71.7,68.9,30.03,ESE,110,0.0,0.0,91,0.00,,,0.08,Wunderground v.1.15,2013-08-19 23:32:00,
2013-08-19 19:37:00,71.3,68.9,30.04,ESE,109,0.0,0.0,92,0.00,,,0.08,Wunderground v.1.15,2013-08-19 23:37:00,
2013-08-19 19:42:00,71.1,68.7,30.04,ESE,110,0.0,0.0,92,0.00,,,0.08,Wunderground v.1.15,2013-08-19 23:42:00,
2013-08-19 19:47:00,70.8,68.7,30.04,ESE,110,0.0,0.0,93,0.00,,,0.08,Wunderground v.1.15,2013-08-19 23:47:00,
2013-08-19 19:52:00,70.7,68.6,30.04,ESE,110,0.0,0.0,93,0.00,,,0.08,Wunderground v.1.15,2013-08-19 23:52:00,
2013-08-19 19:57:00,70.5,68.4,30.04,ESE,110,0.0,0.0,93,0.00,,,0.08,Wunderground v.1.15,2013-08-19 23:57:00,
2013-08-19 20:00:00,68.0,67.7,30.12,North,-999,0.0,0.0,99,0.00,,,-99.99,WeatherLink 6.0.0,2013-08-20 00:00:00,
2013-08-19 20:02:00,70.3,68.5,30.04,ESE,110,0.0,0.0,94,0.00,,,0.08,Wunderground v.1.15,2013-08-20 00:02:00,
2013-08-19 20:07:00,70.1,68.3,30.04,ESE,110,0.0,0.0,94,0.00,,,0.08,Wunderground v.1.15,2013-08-20 00:07:00,
2013-08-19 20:12:00,69.9,68.4,30.04,ESE,110,0.0,0.0,95,0.00,,,0.08,Wunderground v.1.15,2013-08-20 00:12:00,
2013-08-19 20:17:00,69.7,68.2,30.04,ESE,110,0.0,0.0,95,0.00,,,0.08,Wunderground v.1.15,2013-08-20 00:17:00,
2013-08-19 20:22:00,69.5,68.0,30.04,ESE,110,0.0,0.0,95,0.00,,,0.08,Wunderground v.1.15,2013-08-20 00:22:00,
2013-08-19 20:27:00,69.4,67.9,30.05,ESE,110,0.0,0.0,95,0.00,,,0.08,Wunderground v.1.15,2013-08-20 00:27:00,
2013-08-19 20:30:00,68.3,68.0,30.14,North,-999,0.0,0.0,99,0.02,,,-99.99,WeatherLink 6.0.0,2013-08-20 00:30:00,
2013-08-19 20:32:00,69.2,68.0,30.05,ESE,110,0.0,0.0,96,0.00,,,0.08,Wunderground v.1.15,2013-08-20 00:32:00,
2013-08-19 20:37:00,69.1,67.9,30.05,ESE,110,0.0,0.0,96,0.00,,,0.08,Wunderground v.1.15,2013-08-20 00:37:00,
2013-08-19 20:42:00,68.9,67.7,30.05,ESE,110,0.0,0.0,96,0.00,,,0.08,Wunderground v.1.15,2013-08-20 00:42:00,
2013-08-19 20:47:00,68.8,67.6,30.05,ESE,110,0.0,0.0,96,0.00,,,0.08,Wunderground v.1.15,2013-08-20 00:47:00,
2013-08-19 20:52:00,68.6,67.4,30.05,ESE,110,0.0,0.0,96,0.00,,,0.08,Wunderground v.1.15,2013-08-20 00:52:00,
2013-08-19 20:57:00,68.5,67.3,30.05,ESE,110,0.0,0.0,96,0.00,,,0.08,Wunderground v.1.15,2013-08-20 00:57:00,
2013-08-19 21:00:00,68.4,68.1,30.14,North,-999,0.0,0.0,99,0.07,,,-99.99,WeatherLink 6.0.0,2013-08-20 01:00:00,
2013-08-19 21:02:00,68.4,67.2,30.05,ESE,110,0.0,0.0,96,0.00,,,0.08,Wunderground v.1.15,2013-08-20 01:02:00,
2013-08-19 21:07:00,68.3,67.4,30.05,ESE,110,0.0,0.0,97,0.00,,,0.08,Wunderground v.1.15,2013-08-20 01:07:00,
2013-08-19 21:12:00,68.3,67.4,30.06,ESE,110,0.0,0.0,97,0.00,,,0.08,Wunderground v.1.15,2013-08-20 01:12:00,
2013-08-19 21:17:00,68.2,67.3,30.05,ESE,109,0.0,0.0,97,0.00,,,0.08,Wunderground v.1.15,2013-08-20 01:17:00,
2013-08-19 21:22:00,68.1,67.2,30.06,ESE,109,0.0,0.0,97,0.00,,,0.08,Wunderground v.1.15,2013-08-20 01:22:00,
2013-08-19 21:27:00,68.0,67.1,30.06,ESE,110,0.0,0.0,97,0.00,,,0.08,Wunderground v.1.15,2013-08-20 01:27:00,
2013-08-19 21:30:00,68.5,68.2,30.13,ESE,112,0.0,1.0,99,0.13,,,-99.99,WeatherLink 6.0.0,2013-08-20 01:30:00,
2013-08-19 21:32:00,68.0,67.1,30.06,ESE,110,0.0,0.0,97,0.00,,,0.08,Wunderground v.1.15,2013-08-20 01:32:00,
2013-08-19 21:37:00,68.0,67.1,30.06,ESE,110,0.0,0.0,97,0.00,,,0.08,Wunderground v.1.15,2013-08-20 01:37:00,
2013-08-19 21:43:00,68.0,67.1,30.06,ESE,110,0.0,0.0,97,0.00,,,0.08,Wunderground v.1.15,2013-08-20 01:43:00,
2013-08-19 21:48:00,68.0,67.1,30.06,ESE,110,0.0,0.0,97,0.00,,,0.08,Wunderground v.1.15,2013-08-20 01:48:00,
2013-08-19 21:53:00,67.9,67.0,30.06,ESE,110,0.0,0.0,97,0.00,,,0.08,Wunderground v.1.15,2013-08-20 01:53:00,
2013-08-19 21:58:00,67.8,66.9,30.07,ESE,110,0.0,0.0,97,0.00,,,0.08,Wunderground v.1.15,2013-08-20 01:58:00,
2013-08-19 22:00:00,69.2,68.9,30.14,ESE,112,0.0,1.0,99,0.08,,,-99.99,WeatherLink 6.0.0,2013-08-20 02:00:00,
2013-08-19 22:03:00,67.9,67.3,30.07,ESE,110,0.0,0.0,98,0.00,,,0.08,Wunderground v.1.15,2013-08-20 02:03:00,
2013-08-19 22:08:00,67.8,67.2,30.07,ESE,110,0.0,0.0,98,0.00,,,0.08,Wunderground v.1.15,2013-08-20 02:08:00,
2013-08-19 22:13:00,67.8,67.2,30.07,ESE,110,0.0,0.0,98,0.00,,,0.08,Wunderground v.1.15,2013-08-20 02:13:00,
2013-08-19 22:18:00,67.7,66.8,30.07,ESE,110,0.0,0.0,97,0.00,,,0.08,Wunderground v.1.15,2013-08-20 02:18:00,
2013-08-19 22:23:00,67.6,66.7,30.07,ESE,110,0.0,0.0,97,0.00,,,0.08,Wunderground v.1.15,2013-08-20 02:23:00,
2013-08-19 22:28:00,67.4,66.5,30.07,ESE,110,0.0,0.0,97,0.00,,,0.08,Wunderground v.1.15,2013-08-20 02:28:00,
2013-08-19 22:30:00,69.9,69.6,30.15,ESE,112,0.0,3.0,99,0.00,,,-99.99,WeatherLink 6.0.0,2013-08-20 02:30:00,
2013-08-19 22:33:00,67.4,66.8,30.07,ESE,110,0.0,0.0,98,0.00,,,0.08,Wunderground v.1.15,2013-08-20 02:33:00,
2013-08-19 22:38:00,67.3,66.7,30.07,ESE,110,0.0,0.0,98,0.00,,,0.08,Wunderground v.1.15,2013-08-20 02:38:00,
2013-08-19 22:43:00,67.2,66.6,30.07,ESE,110,0.0,0.0,98,0.00,,,0.08,Wunderground v.1.15,2013-08-20 02:43:00,
2013-08-19 22:48:00,67.2,66.6,30.07,ESE,110,0.0,0.0,98,0.00,,,0.08,Wunderground v.1.15,2013-08-20 02:48:00,
2013-08-19 22:53:00,67.2,66.6,30.07,ESE,110,0.0,0.0,98,0.00,,,0.08,Wunderground v.1.15,2013-08-20 02:53:00,
2013-08-19 22:58:00,67.2,66.6,30.07,ESE,110,0.0,0.0,98,0.00,,,0.08,Wunderground v.1.15,2013-08-20 02:58:00,
2013-08-19 23:00:00,70.5,70.2,30.15,ESE,112,0.0,3.0,99,0.00,,,-99.99,WeatherLink 6.0.0,2013-08-20 03:00:00,
2013-08-19 23:03:00,67.1,66.5,30.07,ESE,110,0.0,0.0,98,0.00,,,0.08,Wunderground v.1.15,2013-08-20 03:03:00,
2013-08-19 23:08:00,67.0,66.4,30.07,ESE,110,0.0,0.0,98,0.00,,,0.08,Wunderground v.1.15,2013-08-20 03:08:00,
2013-08-19 23:13:00,67.0,66.4,30.07,ESE,110,0.0,0.0,98,0.00,,,0.08,Wunderground v.1.15,2013-08-20 03:13:00,
2013-08-19 23:18:00,67.0,66.4,30.07,ESE,110,0.0,0.0,98,0.00,,,0.08,Wunderground v.1.15,2013-08-20 03:18:00,
2013-08-19 23:23:00,67.0,66.4,30.08,ESE,110,0.0,0.0,98,0.00,,,0.08,Wunderground v.1.15,2013-08-20 03:23:00,
2013-08-19 23:28:00,67.1,66.5,30.08,ESE,110,0.0,0.0,98,0.00,,,0.08,Wunderground v.1.15,2013-08-20 03:28:00,
2013-08-19 23:30:00,71.3,71.0,30.17,ESE,112,0.0,2.0,99,0.00,,,-99.99,WeatherLink 6.0.0,2013-08-20 03:30:00,
2013-08-19 23:33:00,67.2,66.6,30.08,ESE,109,0.0,0.0,98,0.00,,,0.08,Wunderground v.1.15,2013-08-20 03:33:00,
2013-08-19 23:38:00,67.2,66.6,30.08,ESE,110,0.0,0.0,98,0.00,,,0.08,Wunderground v.1.15,2013-08-20 03:38:00,
2013-08-19 23:43:00,67.2,66.6,30.08,ESE,110,0.0,0.0,98,0.00,,,0.08,Wunderground v.1.15,2013-08-20 03:43:00,
2013-08-19 23:48:00,67.3,66.7,30.08,ESE,110,0.0,0.0,98,0.00,,,0.08,Wunderground v.1.15,2013-08-20 03:48:00,
2013-08-19 23:53:00,67.3,66.7,30.08,ESE,110,0.0,0.0,98,0.00,,,0.08,Wunderground v.1.15,2013-08-20 03:53:00,
2013-08-19 23:58:00,67.4,66.8,30.08,ESE,110,0.0,0.0,98,0.00,,,0.08,Wunderground v.1.15,2013-08-20 03:58:00,